Location: 相模原市立博物館
(35.5593°N, 139.3931°E)
Time: 15:11:57
(UTC+09:00)

YUBILEINY - Visible Passes

Search period start: 28 January 2022 00:00
Search period end: 07 February 2022 00:00
Orbit: 1479 x 1508 km, 82.5° (Epoch: 27 January)

Date Brightness Start Highest point End Pass type
(mag) Time Alt. Az. Time Alt. Az. Time Alt. Az.
28 Jan ? 19:41:26 10° N 19:43:11 16° NNE 19:43:11 16° NNE visible
28 Jan ? 21:38:05 10° NNW 21:39:08 14° NNW 21:39:08 14° NNW visible
29 Jan ? 18:53:19 10° NNE 18:54:30 13° NNE 18:54:30 13° NNE visible
29 Jan ? 20:48:04 10° N 20:50:26 21° N 20:50:26 21° N visible
30 Jan ? 19:58:37 10° N 20:01:48 25° N 20:01:48 25° N visible
30 Jan ? 21:56:29 10° NNW 21:57:46 14° NW 21:57:46 14° NW visible
31 Jan ? 19:09:46 10° NNE 19:13:16 22° NNE 19:13:16 22° NNE visible
31 Jan ? 21:05:56 10° NNW 21:09:14 25° NNW 21:09:14 25° NNW visible
01 Feb ? 18:22:12 10° NNE 18:24:49 14° NE 18:24:49 14° NE visible
01 Feb ? 20:16:06 10° N 20:20:48 37° N 20:20:48 37° N visible
01 Feb ? 22:15:43 10° NW 22:16:46 12° NW 22:16:46 12° NW visible
02 Feb ? 19:26:47 10° N 19:32:29 38° NE 19:32:29 38° NE visible
02 Feb ? 21:24:07 10° NNW 21:28:28 26° NW 21:28:28 26° NW visible
03 Feb ? 18:38:12 10° NNE 18:44:21 25° ENE 18:44:21 25° ENE visible
03 Feb ? 20:33:50 10° NNW 20:40:21 51° NW 20:40:21 51° NW visible
04 Feb ? 17:51:41 10° NE 17:54:31 12° ENE 17:56:31 11° ENE visible
04 Feb ? 19:44:08 10° N 19:52:33 72° ENE 19:52:33 72° ENE visible
04 Feb ? 21:42:54 10° NW 21:48:35 20° W 21:48:35 20° W visible
05 Feb ? 18:55:01 10° N 19:03:05 39° ENE 19:05:18 34° ESE visible
05 Feb ? 20:51:52 10° NNW 20:59:45 40° W 21:01:25 37° WSW visible
06 Feb ? 18:06:45 10° NNE 18:12:52 20° ENE 18:18:54 10° ESE visible
06 Feb ? 20:01:46 10° N 20:10:29 75° W 20:19:07 10° S visible
06 Feb ? 22:03:45 10° WNW 22:05:38 11° WNW 22:07:31 10° W visible
